x

9442396 - La Push, Wa (lapw1) Weather Station

6:36pm - Thu 27th Jul 2017 All times are PDT. -7 hours from GMT.

  • Wind
    9mph, 11mph gusts
  • Sea Temp 46°f
  • 空気 Temp 57°f
  • Sea Pressure 1021.5mb
  • 9442396 - La Push, Wa
  • 9442396 - La Push, Wa

More Historic Weather Station data

Upgrade to MSW Pro to gain access to the past 30 days of data for over 8000 Wavebouys and Weather Stations around the globe.

Join Pro

Comparision Forecast

View Surf forecast
   
Thu 07/27 6:36pm 9 11 mph 1021.5mb 46f 57f
6:30pm 8 9 mph 1021.5mb 46f 57f
6:24pm 7 8 mph 1021.6mb 46f 57f
6:18pm 7 9 mph 1021.7mb 46f 58f
6:12pm 8 9 mph 1021.7mb 46f 58f
6:06pm 7 9 mph 1021.7mb 46f 58f
6:00pm 7 9 mph 1021.7mb 46f 58f
5:36pm 7 8 mph 1021.9mb 46f 58f
5:30pm 7 8 mph 1022mb 46f 58f
5:24pm 7 8 mph 1022mb 46f 58f
5:18pm 7 8 mph 1022mb 46f 58f
5:12pm 7 8 mph 1022mb 46f 58f
5:06pm 6 8 mph 1022.1mb 46f 58f
5:00pm 7 8 mph 1022.2mb 46f 58f
4:36pm 5 6 mph 1022.4mb 46f 58f
4:30pm 6 7 mph 1022.4mb 46f 58f
4:24pm 6 7 mph 1022.5mb 46f 58f
4:18pm 6 8 mph 1022.6mb 46f 58f
4:12pm 7 8 mph 1022.7mb 46f 58f
4:06pm 6 7 mph 1022.7mb 46f 58f
4:00pm 5 7 mph 1022.7mb 46f 58f
3:36pm 3 6 mph 1022.6mb 46f 58f
3:30pm 3 5 mph 1022.6mb 46f 58f
3:24pm 3 6 mph 1022.6mb 46f 58f
3:18pm 3 5 mph 1022.6mb 46f 58f
3:12pm 5 5 mph 1022.7mb 46f 58f
3:06pm 3 5 mph 1022.7mb 46f 58f
3:00pm 3 5 mph 1022.7mb 46f 58f
2:36pm 2 3 mph 1022.9mb 46f 58f
2:30pm 2 5 mph 1022.9mb 46f 58f
2:24pm 2 3 mph 1022.9mb 46f 58f
2:18pm 2 3 mph 1022.9mb 46f 58f
2:12pm 2 3 mph 1022.8mb 46f 58f
2:06pm 2 2 mph 1022.9mb 46f 58f
2:00pm 2 3 mph 1022.9mb 46f 59f
1:36pm 2 2 mph 1022.8mb 47f 58f
1:30pm 2 2 mph 1022.8mb 47f 57f
1:24pm 1 2 mph 1022.8mb 47f 57f
1:18pm 1 2 mph 1022.8mb 46f 57f
1:12pm 2 3 mph 1022.8mb 46f 57f
1:06pm 2 2 mph 1022.8mb 46f 57f
1:00pm 2 5 mph 1022.9mb 46f 57f
12:36pm 2 3 mph 1022.8mb 47f 57f
12:30pm 3 3 mph 1022.8mb 47f 57f
12:24pm 2 3 mph 1022.8mb 47f 57f
12:18pm 3 3 mph 1022.8mb 47f 57f
12:12pm 3 5 mph 1022.7mb 47f 57f
12:06pm 3 5 mph 1022.7mb 47f 57f
12:00pm 3 5 mph 1022.6mb 47f 57f
11:36am 5 6 mph 1022.5mb 51f 58f
11:30am 3 6 mph 1022.5mb 51f 58f
11:24am 5 6 mph 1022.4mb 53f 58f
11:18am 6 7 mph 1022.4mb 54f 58f
11:12am 5 6 mph 1022.3mb 54f 58f
11:06am 3 7 mph 1022.3mb 55f 58f
11:00am 6 7 mph 1022.3mb 55f 58f
10:36am 5 6 mph 1022.3mb 56f 56f
10:30am 3 5 mph 1022.3mb 56f 56f
10:24am 3 6 mph 1022.3mb 56f 56f
10:18am 2 3 mph 1022.3mb 56f 56f
10:12am 2 5 mph 1022.3mb 56f 56f
10:06am 1 3 mph 1022.2mb 56f 56f
10:00am 1 2 mph 1022.1mb 56f 57f
9:36am  -  1 mph 1022.1mb 57f 56f
9:30am 1 1 mph 1022.1mb 57f 56f
9:24am 1 2 mph 1022mb 57f 56f
9:18am  -  2 mph 1022mb 57f 56f
9:12am 2 3 mph 1022mb 57f 56f
9:06am  -  1 mph 1022mb 57f 56f
9:00am  -  1 mph 1022mb 56f 56f
8:36am 1 2 mph 1021.9mb 56f 55f
8:30am 2 2 mph 1022mb 55f 55f
8:24am 1 3 mph 1021.9mb 53f 55f
8:18am  -  2 mph 1021.9mb 53f 55f
8:12am  -  2 mph 1021.9mb 50f 55f
8:06am  -  3 mph 1021.8mb 49f 55f
8:00am 3 5 mph 1021.8mb 49f 55f
7:36am 1 3 mph 1021.7mb 47f 55f
7:30am 2 3 mph 1021.7mb 47f 56f
7:24am 2 3 mph 1021.7mb 47f 56f
7:18am 2 3 mph 1021.6mb 47f 56f
7:12am 1 2 mph 1021.6mb 47f 56f
7:06am 1 2 mph 1021.6mb 47f 56f
7:00am 2 3 mph 1021.5mb 47f 56f
6:36am 2 3 mph 1021.3mb 47f 56f
6:30am 1 2 mph 1021.3mb 47f 56f
6:24am  -  1 mph 1021.3mb 47f 56f
6:18am 1 2 mph 1021.2mb 47f 56f
6:12am 1 2 mph 1021.2mb 47f 56f
6:06am  -  1 mph 1021.2mb 47f 56f
6:00am  -  1 mph 1021.1mb 47f 56f
5:36am  -  2 mph 1020.9mb 47f 56f
5:30am 1 2 mph 1020.8mb 47f 56f
5:24am  -  2 mph 1020.8mb 47f 56f
5:18am 1 2 mph 1020.8mb 47f 56f
5:12am 2 2 mph 1020.9mb 47f 56f
5:06am 2 2 mph 1020.8mb 47f 56f
5:00am 1 2 mph 1020.8mb 47f 56f
4:36am 1 2 mph 1020.7mb 47f 56f
4:30am 1 2 mph 1020.7mb 47f 56f
4:24am  -  1 mph 1020.6mb 47f 56f
4:18am  -  2 mph 1020.5mb 47f 56f
4:12am  -  1 mph 1020.5mb 47f 56f
4:06am  -  2 mph 1020.4mb 47f 56f
4:00am 1 2 mph 1020.4mb 47f 56f
3:36am 3 5 mph 1020.5mb 47f 56f
3:30am 5 7 mph 1020.6mb 47f 55f
3:24am 6 6 mph 1020.6mb 47f 55f
3:18am 5 6 mph 1020.6mb 47f 56f
3:12am 5 6 mph 1020.6mb 47f 56f
3:06am 3 6 mph 1020.6mb 47f 56f
3:00am 3 3 mph 1020.6mb 47f 55f
2:36am 2 3 mph 1020.5mb 47f 56f
2:30am 2 5 mph 1020.5mb 47f 56f
2:24am 3 5 mph 1020.5mb 47f 56f
2:18am 2 3 mph 1020.5mb 47f 56f
2:12am 2 5 mph 1020.5mb 48f 56f
2:06am 3 5 mph 1020.5mb 47f 56f
2:00am 3 6 mph 1020.5mb 48f 56f
1:36am 3 3 mph 1020.5mb 48f 56f
1:30am 3 5 mph 1020.5mb 48f 56f
1:24am 2 3 mph 1020.4mb 48f 56f
1:18am 3 5 mph 1020.4mb 48f 56f
1:12am 3 5 mph 1020.4mb 48f 56f
1:06am 3 5 mph 1020.4mb 47f 56f
1:00am 3 6 mph 1020.5mb 47f 55f
12:36am 3 5 mph 1020.6mb 47f 56f
12:30am 3 3 mph 1020.6mb 47f 56f
12:24am 2 3 mph 1020.5mb 47f 56f
12:18am 2 3 mph 1020.5mb 48f 56f
12:12am 3 5 mph 1020.4mb 48f 56f
12:06am 3 6 mph 1020.4mb 48f 56f
12:00am 5 6 mph 1020.5mb 48f 56f
Wed 07/26 11:36pm 3 5 mph 1020.1mb 48f 56f
11:30pm 3 5 mph 1020.1mb 48f 56f
11:24pm 3 5 mph 1020mb 48f 56f
11:18pm 2 3 mph 1020mb 48f 56f
11:12pm 2 5 mph 1020mb 48f 56f
11:06pm 3 6 mph 1020mb 49f 56f
11:00pm 5 6 mph 1020.1mb 49f 56f
10:36pm 3 6 mph 1020mb 50f 56f
10:30pm 5 6 mph 1020mb 50f 56f
10:24pm 5 6 mph 1020mb 51f 56f
10:18pm 3 3 mph 1020mb 52f 56f
10:12pm 2 2 mph 1020.1mb 52f 56f
10:06pm 2 5 mph 1020mb 52f 55f
10:00pm 3 5 mph 1019.9mb 53f 55f
9:36pm 3 6 mph 1019.9mb 52f 56f
9:30pm 3 5 mph 1019.9mb 53f 56f
9:24pm 3 6 mph 1019.9mb 55f 56f
9:18pm 5 7 mph 1019.8mb 56f 56f
9:12pm 3 6 mph 1019.8mb 56f 56f
9:06pm 6 7 mph 1019.8mb 55f 57f
9:00pm 5 7 mph 1019.7mb 54f 57f
8:36pm 8 11 mph 1019.9mb 51f 56f
8:30pm 8 10 mph 1019.9mb 49f 56f
8:24pm 8 10 mph 1019.9mb 49f 56f
8:18pm 8 10 mph 1019.9mb 49f 56f
8:12pm 7 9 mph 1019.8mb 49f 56f
8:06pm 7 9 mph 1019.9mb 48f 56f
8:00pm 7 8 mph 1019.9mb 48f 56f
7:36pm 7 9 mph 1019.8mb 48f 57f
7:30pm 7 9 mph 1019.9mb 48f 57f
7:24pm 8 10 mph 1020mb 48f 57f
7:18pm 8 9 mph 1019.9mb 48f 57f
7:12pm 7 9 mph 1020mb 48f 57f
7:06pm 7 10 mph 1020mb 48f 57f
7:00pm 9 10 mph 1020.1mb 48f 57f
6:54pm 9 11 mph 1020.2mb 48f 57f
6:48pm 9 10 mph 1020.1mb 48f 57f
6:36pm 8 10 mph 1020.1mb 48f 57f
6:30pm 9 11 mph 1020.1mb 48f 57f
6:24pm 9 11 mph 1020.1mb 48f 57f
6:18pm 9 11 mph 1020.1mb 48f 57f
6:12pm 8 10 mph 1020.1mb 48f 57f
6:06pm 8 10 mph 1020.2mb 48f 56f
6:00pm 8 10 mph 1020.4mb 48f 57f
5:54pm 8 10 mph 1020.4mb 48f 57f
5:48pm 9 10 mph 1020.4mb 48f 56f
5:36pm 7 9 mph 1020.4mb 48f 56f
5:30pm 8 10 mph 1020.4mb 48f 56f
5:24pm 9 10 mph 1020.5mb 48f 56f
5:18pm 9 10 mph 1020.6mb 48f 56f
5:12pm 7 9 mph 1020.6mb 48f 56f
5:06pm 8 10 mph 1020.7mb 48f 56f
5:00pm 9 10 mph 1020.7mb 48f 56f
4:54pm 9 13 mph 1020.7mb 48f 56f
4:48pm 9 11 mph 1020.8mb 48f 56f
4:36pm 9 10 mph 1020.8mb 48f 56f
4:30pm 8 9 mph 1020.8mb 48f 56f
4:24pm 8 10 mph 1020.8mb 48f 56f
4:18pm 8 9 mph 1020.9mb 48f 56f
4:12pm 7 8 mph 1020.9mb 48f 56f
4:06pm 6 6 mph 1020.8mb 48f 56f
4:00pm 6 7 mph 1020.9mb 48f 56f
3:54pm 6 7 mph 1020.9mb 48f 56f
3:48pm 6 7 mph 1021mb 48f 56f
3:36pm 6 8 mph 1020.9mb 49f 56f
3:30pm 6 8 mph 1021mb 48f 56f
3:24pm 6 8 mph 1020.9mb 48f 56f
3:18pm 7 9 mph 1021mb 48f 56f
3:12pm 8 9 mph 1020.9mb 48f 56f
3:06pm 7 8 mph 1020.8mb 48f 56f
3:00pm 8 9 mph 1021mb 48f 56f
2:54pm 8 10 mph 1020.9mb 48f 56f
2:48pm 7 9 mph 1020.9mb 48f 56f
2:36pm 7 9 mph 1020.9mb 48f 56f
2:30pm 7 9 mph 1020.9mb 48f 56f
2:24pm 7 10 mph 1021mb 48f 56f
2:18pm 9 11 mph 1020.9mb 48f 56f
2:12pm 9 11 mph 1021mb 48f 56f
2:06pm 9 13 mph 1021mb 48f 56f
2:00pm 10 13 mph 1021mb 48f 56f
1:54pm 9 10 mph 1020.9mb 47f 56f
1:48pm 9 11 mph 1020.8mb 47f 56f
1:36pm 10 11 mph 1020.9mb 48f 56f
1:30pm 7 11 mph 1020.7mb 48f 56f
1:24pm 7 8 mph 1020.7mb 48f 56f
1:18pm 7 9 mph 1020.7mb 48f 56f
1:12pm 7 10 mph 1020.8mb 48f 56f
1:06pm 8 10 mph 1020.8mb 48f 56f
1:00pm 9 10 mph 1020.8mb 47f 56f
12:54pm 8 10 mph 1020.8mb 47f 56f
12:48pm 10 13 mph 1020.9mb 47f 56f
12:36pm 7 9 mph 1020.8mb 48f 56f
12:30pm 6 7 mph 1020.7mb 48f 56f
12:24pm 5 6 mph 1020.7mb 48f 56f
12:18pm 5 7 mph 1020.8mb 48f 56f
12:12pm 5 7 mph 1020.9mb 48f 56f
12:06pm 5 7 mph 1020.9mb 48f 56f
12:00pm 5 6 mph 1020.9mb 48f 56f
11:54am 5 7 mph 1020.9mb 49f 56f
11:48am 6 7 mph 1020.9mb 49f 56f
11:36am 6 8 mph 1020.8mb 49f 56f
11:30am 6 7 mph 1020.9mb 50f 56f
11:24am 5 7 mph 1020.9mb 51f 56f
11:18am 5 6 mph 1020.8mb 52f 56f
11:12am 5 6 mph 1020.9mb 53f 56f
11:06am 3 5 mph 1020.9mb 55f 56f
11:00am 3 3 mph 1020.9mb 56f 56f
10:54am 2 3 mph 1020.9mb 57f 56f
10:48am 2 3 mph 1020.8mb 58f 55f
10:36am 2 3 mph 1020.7mb 58f 55f
10:30am 2 3 mph 1020.6mb 58f 55f
10:24am 3 5 mph 1020.6mb 59f 56f
10:18am 3 5 mph 1020.6mb 59f 55f
10:12am 5 6 mph 1020.6mb 59f 56f
10:06am 5 6 mph 1020.6mb 58f 55f
10:00am 5 6 mph 1020.6mb 58f 55f
9:54am 3 6 mph 1020.6mb 58f 55f
9:48am 3 3 mph 1020.4mb 58f 56f
9:36am 5 5 mph 1020.4mb 58f 56f
9:30am 3 5 mph 1020.4mb 58f 56f
9:24am 2 3 mph 1020.4mb 58f 56f
9:18am 3 3 mph 1020.4mb 58f 56f
9:12am 2 3 mph 1020.4mb 58f 56f
9:06am 2 3 mph 1020.4mb 59f 56f
9:00am 3 5 mph 1020.4mb 59f 56f
8:54am 2 2 mph 1020.2mb 59f 56f
8:48am 2 3 mph 1020.2mb 59f 56f
8:36am 2 3 mph 1020.3mb 59f 56f
8:30am 1 1 mph 1020.2mb 59f 56f
8:24am 1 2 mph 1020.2mb 59f 56f
8:18am 2 2 mph 1020.3mb 59f 56f
8:12am  -  1 mph 1020.2mb 58f 56f
8:06am  -  2 mph 1020.2mb 58f 56f
8:00am 1 2 mph 1020.2mb 58f 55f
7:54am  -  2 mph 1020.2mb 57f 55f
7:48am 2 2 mph 1020.1mb 57f 55f
7:36am  -  2 mph 1020mb 55f 56f
7:30am  -  1 mph 1019.8mb 54f 56f
7:24am  -  0 mph 1019.8mb 53f 56f
7:18am  -  0 mph 1019.8mb 52f 55f
7:12am  -  0 mph 1019.9mb 51f 55f
7:06am  -  1 mph 1020mb 51f 55f
7:00am 1 2 mph 1020mb 50f 55f
6:54am  -  2 mph 1020mb 49f 55f
6:48am  -  1 mph 1020mb 49f 55f
6:36am  -  1 mph 1020mb 49f 55f
6:30am 1 2 mph 1019.9mb 49f 55f
6:24am  -  1 mph 1019.8mb 49f 55f
6:18am 1 2 mph 1019.8mb 49f 55f
6:12am 1 1 mph 1019.8mb 48f 55f
6:06am  -  1 mph 1019.8mb 48f 55f
6:00am  -  1 mph 1019.8mb 48f 55f
5:54am  -  1 mph 1019.7mb 48f 55f
5:48am 1 1 mph 1019.6mb 48f 55f
5:36am  -  1 mph 1019.6mb 48f 55f
5:30am 2 2 mph 1019.6mb 48f 55f
5:24am 1 1 mph 1019.5mb 48f 55f
5:18am  -  2 mph 1019.4mb 48f 55f
5:12am 1 2 mph 1019.5mb 48f 55f
5:06am 1 2 mph 1019.4mb 48f 55f
5:00am 1 2 mph 1019.4mb 48f 55f
4:54am 1 3 mph 1019.3mb 48f 55f
4:48am 2 3 mph 1019.3mb 48f 55f
4:36am 2 3 mph 1019.4mb 48f 55f
4:30am 3 5 mph 1019.4mb 48f 55f
4:24am 3 5 mph 1019.4mb 48f 55f
4:18am 3 5 mph 1019.4mb 48f 55f
4:12am 3 5 mph 1019.5mb 48f 55f
4:06am 3 5 mph 1019.5mb 48f 55f
4:00am 3 5 mph 1019.5mb 48f 55f
3:54am 3 5 mph 1019.4mb 48f 55f
3:48am 5 5 mph 1019.4mb 48f 55f
3:36am 3 6 mph 1019.2mb 48f 55f
3:30am 6 6 mph 1019.2mb 48f 55f
3:24am 6 6 mph 1019.2mb 49f 55f
3:18am 3 5 mph 1019.1mb 48f 55f
3:12am 3 5 mph 1019.1mb 48f 55f
3:06am 3 6 mph 1019.2mb 48f 55f
3:00am 5 5 mph 1019.2mb 48f 56f
2:54am 3 6 mph 1019.1mb 48f 56f
2:48am 3 6 mph 1019.2mb 48f 56f
2:36am 3 7 mph 1019.1mb 49f 55f
2:30am 6 7 mph 1019.2mb 49f 55f
2:24am 6 7 mph 1019.2mb 49f 56f
2:18am 5 8 mph 1019.2mb 49f 56f
2:12am 6 8 mph 1019.3mb 48f 56f
2:06am 6 11 mph 1019.2mb 49f 56f
2:00am 7 9 mph 1019.2mb 49f 56f
1:54am 6 8 mph 1019.2mb 48f 56f
1:48am 5 9 mph 1019.2mb 48f 56f
1:36am 5 10 mph 1019.3mb 48f 55f
1:30am 7 9 mph 1019.2mb 49f 55f
1:24am 6 11 mph 1019.2mb 49f 55f
1:18am 11 14 mph 1019.1mb 49f 55f
1:12am 9 11 mph 1019.2mb 49f 55f
1:06am 8 9 mph 1019.2mb 49f 55f
1:00am 9 11 mph 1019.1mb 49f 55f
12:54am 9 11 mph 1019.1mb 49f 55f
12:48am 9 10 mph 1019.1mb 49f 55f
12:36am 8 10 mph 1019.2mb 49f 55f
12:30am 10 14 mph 1019.1mb 49f 55f
12:24am 11 14 mph 1019.1mb 50f 55f
12:18am 10 13 mph 1019.3mb 50f 56f
12:12am 11 15 mph 1019.3mb 50f 55f
12:06am 10 13 mph 1019.3mb 51f 56f
12:00am 8 10 mph 1019.2mb 51f 56f
Tue 07/25 11:54pm 9 10 mph 1019.1mb 51f 56f
11:48pm 10 13 mph 1019.2mb 51f 56f
11:36pm 8 10 mph 1019.1mb 51f 56f
11:30pm 8 11 mph 1019.1mb 51f 56f
11:24pm 10 13 mph 1019.1mb 51f 56f
11:18pm 9 16 mph 1019mb 51f 56f
11:12pm 14 17 mph 1019.1mb 51f 57f
11:06pm 11 14 mph 1019mb 51f 57f
11:00pm 10 15 mph 1018.9mb 51f 56f
10:54pm 11 14 mph 1018.9mb 51f 56f
10:48pm 11 16 mph 1018.8mb 51f 56f
10:36pm 11 14 mph 1018.9mb 52f 57f
10:30pm 8 9 mph 1018.8mb 52f 57f
10:24pm 9 10 mph 1018.8mb 52f 57f
10:18pm 8 11 mph 1018.8mb 52f 57f
10:12pm 9 11 mph 1018.7mb 52f 57f
10:06pm 9 11 mph 1018.8mb 53f 57f
10:00pm 10 13 mph 1018.8mb 53f 57f
9:54pm 10 14 mph 1018.7mb 53f 57f
9:48pm 11 16 mph 1018.7mb 53f 56f
9:36pm 11 15 mph 1018.7mb 55f 56f
9:30pm 13 20 mph 1018.7mb 55f 57f
9:24pm 13 16 mph 1018.7mb 56f 57f
9:18pm 13 17 mph 1018.7mb 56f 56f
9:12pm 11 15 mph 1018.6mb 56f 56f
9:06pm 11 14 mph 1018.6mb 57f 56f
9:00pm 10 16 mph 1018.6mb 58f 56f
8:54pm 13 15 mph 1018.6mb 59f 56f
8:48pm 14 15 mph 1018.6mb 60f 56f
8:36pm 11 15 mph 1018.5mb 60f 56f
8:30pm 14 18 mph 1018.5mb 59f 56f
8:24pm 14 16 mph 1018.5mb 59f 56f
8:18pm 14 20 mph 1018.5mb 58f 56f
8:12pm 15 18 mph 1018.5mb 58f 56f
8:06pm 14 18 mph 1018.5mb 57f 56f
8:00pm 11 16 mph 1018.5mb 56f 56f
7:54pm 14 17 mph 1018.5mb 55f 56f
7:48pm 15 21 mph 1018.5mb 55f 57f
7:36pm 15 18 mph 1018.4mb 51f 57f
7:30pm 16 20 mph 1018.5mb 51f 57f
7:24pm 15 18 mph 1018.4mb 51f 56f
7:18pm 14 18 mph 1018.4mb 50f 56f
7:12pm 15 18 mph 1018.5mb 50f 56f
7:06pm 14 16 mph 1018.5mb 50f 56f
7:00pm 14 16 mph 1018.5mb 50f 56f
6:54pm 14 18 mph 1018.6mb 50f 57f
6:48pm 15 18 mph 1018.6mb 50f 56f
6:36pm 15 16 mph 1018.6mb 50f 57f
6:30pm 15 17 mph 1018.5mb 50f 57f
6:24pm 14 16 mph 1018.5mb 50f 56f
6:18pm 13 15 mph 1018.5mb 50f 56f
6:12pm 14 16 mph 1018.6mb 50f 56f
6:06pm 13 16 mph 1018.5mb 50f 56f
6:00pm 14 16 mph 1018.5mb 50f 56f
5:54pm 14 16 mph 1018.5mb 50f 56f
5:48pm 13 16 mph 1018.5mb 50f 56f
5:36pm 14 17 mph 1018.6mb 50f 56f
5:30pm 14 16 mph 1018.6mb 49f 56f
5:24pm 14 16 mph 1018.7mb 49f 56f
5:18pm 14 16 mph 1018.6mb 49f 56f
5:12pm 14 18 mph 1018.6mb 49f 56f
5:06pm 14 18 mph 1018.6mb 49f 56f
5:00pm 14 20 mph 1018.6mb 49f 57f
4:54pm 14 16 mph 1018.6mb 49f 56f
4:48pm 14 17 mph 1018.7mb 49f 56f
4:36pm 15 18 mph 1018.7mb 49f 56f
4:30pm 14 17 mph 1018.7mb 49f 56f
4:24pm 15 17 mph 1018.7mb 50f 56f
4:18pm 15 20 mph 1018.8mb 49f 56f
4:12pm 15 17 mph 1018.8mb 49f 56f
4:06pm 14 18 mph 1018.8mb 49f 56f
4:00pm 15 17 mph 1018.9mb 49f 56f
3:54pm 15 18 mph 1018.9mb 49f 56f
3:48pm 15 18 mph 1018.9mb 49f 56f
3:36pm 13 15 mph 1018.9mb 49f 56f
3:30pm 14 16 mph 1018.9mb 49f 56f
3:24pm 14 16 mph 1018.9mb 49f 56f
3:18pm 14 16 mph 1018.9mb 49f 56f
3:12pm 15 20 mph 1018.9mb 49f 56f
3:06pm 15 17 mph 1018.9mb 49f 56f
3:00pm 14 16 mph 1018.9mb 49f 56f
2:54pm 13 17 mph 1018.9mb 49f 56f
2:48pm 14 16 mph 1018.9mb 49f 56f
2:36pm 15 17 mph 1019mb 49f 56f
2:30pm 16 17 mph 1019mb 49f 56f
2:24pm 14 16 mph 1019mb 49f 56f
2:18pm 10 14 mph 1019mb 49f 56f
2:12pm 9 11 mph 1019mb 49f 56f
2:06pm 9 13 mph 1019mb 49f 56f
2:00pm 11 13 mph 1019.1mb 49f 56f
1:54pm 10 11 mph 1019.1mb 49f 56f
1:36pm 8 10 mph 1019mb 49f 55f
1:30pm 7 10 mph 1019mb 49f 55f
1:24pm 8 10 mph 1019mb 49f 55f
1:18pm 8 10 mph 1018.9mb 49f 56f
1:12pm 7 10 mph 1019mb 49f 56f
1:06pm 9 11 mph 1019mb 49f 56f
1:00pm 10 13 mph 1019mb 49f 56f
12:54pm 10 11 mph 1018.9mb 49f 56f
12:48pm 9 10 mph 1018.9mb 49f 56f
12:36pm 8 10 mph 1018.9mb 49f 56f
12:30pm 8 10 mph 1018.9mb 49f 56f
12:24pm 9 10 mph 1018.9mb 49f 56f
12:18pm 8 10 mph 1018.9mb 49f 56f
12:12pm 6 8 mph 1018.9mb 49f 56f
12:06pm 7 10 mph 1018.9mb 49f 56f
12:00pm 7 8 mph 1018.9mb 49f 56f
11:54am 7 9 mph 1018.8mb 49f 56f
11:48am 7 9 mph 1018.8mb 49f 56f
11:36am 8 9 mph 1018.8mb 49f 56f
11:30am 7 10 mph 1018.8mb 50f 55f
11:24am 7 9 mph 1018.8mb 50f 55f
11:18am 6 7 mph 1018.7mb 50f 55f
11:12am 6 8 mph 1018.6mb 50f 56f
11:06am 6 8 mph 1018.6mb 51f 55f
11:00am 6 8 mph 1018.6mb 51f 55f
10:54am 6 8 mph 1018.6mb 52f 55f
10:48am 6 8 mph 1018.4mb 53f 55f
10:36am 7 8 mph 1018.6mb 55f 55f
10:30am 6 8 mph 1018.5mb 56f 55f
10:24am 5 6 mph 1018.4mb 57f 55f
10:18am 6 6 mph 1018.4mb 57f 55f
10:12am 5 6 mph 1018.4mb 58f 55f
10:06am 3 6 mph 1018.3mb 58f 55f
10:00am 5 6 mph 1018.3mb 58f 56f
9:54am 2 5 mph 1018.3mb 58f 55f
9:48am 3 5 mph 1018.3mb 58f 55f
9:36am 2 5 mph 1018.3mb 58f 55f
9:30am 3 6 mph 1018.3mb 58f 55f
9:24am 3 6 mph 1018.3mb 58f 55f
9:18am 5 7 mph 1018.3mb 58f 55f
9:12am 5 6 mph 1018.2mb 58f 55f
9:06am 5 6 mph 1018.2mb 58f 55f
9:00am 3 5 mph 1018.2mb 58f 55f
8:54am 3 5 mph 1018.1mb 58f 55f
8:48am 3 6 mph 1018.1mb 58f 56f
8:36am 2 3 mph 1018mb 58f 56f
8:30am 1 3 mph 1018mb 58f 55f
8:24am 3 5 mph 1017.9mb 58f 55f
8:18am 1 3 mph 1017.9mb 58f 55f
8:12am 2 2 mph 1017.9mb 58f 55f
8:06am 1 3 mph 1017.8mb 58f 55f
8:00am  -  2 mph 1017.8mb 58f 55f
7:54am  -  1 mph 1017.7mb 58f 54f
7:48am 1 2 mph 1017.7mb 58f 54f
7:36am 1 2 mph 1017.6mb 58f 53f
7:30am 2 3 mph 1017.5mb 58f 53f
7:24am 2 3 mph 1017.6mb 58f 53f
7:18am 3 3 mph 1017.5mb 59f 52f
7:12am 3 5 mph 1017.5mb 59f 52f
7:06am 5 6 mph 1017.5mb 58f 52f
7:00am 3 5 mph 1017.5mb 58f 52f
6:54am 5 5 mph 1017.5mb 57f 51f
6:48am 3 5 mph 1017.5mb 57f 51f
6:36am 2 5 mph 1017.4mb 55f 51f
6:30am 5 6 mph 1017.3mb 54f 51f
6:24am 5 6 mph 1017.3mb 53f 51f
6:18am 5 6 mph 1017.3mb 51f 51f
6:12am 6 7 mph 1017.3mb 51f 51f
6:06am 6 7 mph 1017.2mb 50f 51f
6:00am 6 7 mph 1017mb 50f 51f
5:54am 6 7 mph 1017mb 50f 51f
5:48am 5 7 mph 1017mb 50f 51f
5:36am 5 6 mph 1016.9mb 50f 51f
5:30am 5 6 mph 1016.9mb 49f 51f
5:24am 5 6 mph 1016.9mb 49f 51f
5:18am 5 6 mph 1016.8mb 49f 51f
5:12am 5 6 mph 1016.8mb 49f 51f
5:06am 6 6 mph 1016.8mb 49f 51f
5:00am 5 7 mph 1016.7mb 49f 52f
4:54am 6 6 mph 1016.7mb 49f 52f
4:48am 5 6 mph 1016.7mb 49f 52f
4:36am 3 5 mph 1016.8mb 49f 52f
4:30am 3 3 mph 1016.7mb 49f 51f
4:24am 2 3 mph 1016.8mb 49f 52f
4:18am 1 3 mph 1016.8mb 49f 52f
4:12am 3 3 mph 1016.8mb 49f 52f
4:06am 3 3 mph 1016.8mb 49f 52f
4:00am 2 2 mph 1016.7mb 49f 53f
3:54am 2 2 mph 1016.8mb 49f 53f
3:48am 2 2 mph 1016.8mb 49f 53f
3:36am 1 1 mph 1016.8mb 49f 53f
3:30am 1 2 mph 1016.8mb 49f 54f
3:24am 1 1 mph 1016.8mb 49f 53f
3:18am  -  0 mph 1016.9mb 49f 54f
3:12am  -  1 mph 1016.9mb 49f 54f
3:06am  -  1 mph 1016.8mb 49f 53f
3:00am 1 2 mph 1016.8mb 49f 53f
2:54am 2 3 mph 1016.8mb 49f 54f
2:48am 1 2 mph 1016.8mb 49f 54f
2:36am  -  2 mph 1016.6mb 49f 54f
2:30am 2 3 mph 1016.6mb 49f 55f
2:24am 3 5 mph 1016.6mb 49f 55f
2:18am 3 6 mph 1016.6mb 49f 54f
2:12am 5 6 mph 1016.6mb 49f 55f
2:06am 5 6 mph 1016.6mb 49f 55f
2:00am 5 6 mph 1016.7mb 49f 55f
1:54am 5 5 mph 1016.6mb 49f 55f
1:48am 3 5 mph 1016.6mb 49f 55f
1:36am 3 5 mph 1016.6mb 49f 55f
1:30am 3 6 mph 1016.6mb 49f 55f
1:24am 5 6 mph 1016.6mb 49f 55f
1:18am 3 5 mph 1016.5mb 49f 56f
1:12am 3 6 mph 1016.6mb 49f 56f
1:06am 5 5 mph 1016.5mb 49f 56f
1:00am 2 2 mph 1016.4mb 49f 56f
12:54am 2 2 mph 1016.4mb 49f 56f
12:48am 1 2 mph 1016.4mb 49f 55f
12:36am 3 6 mph 1016.4mb 49f 56f
12:30am 3 5 mph 1016.3mb 49f 55f
12:24am 3 5 mph 1016.3mb 49f 55f
12:18am 2 5 mph 1016.4mb 49f 55f
12:12am 2 3 mph 1016.3mb 49f 56f
12:06am 2 3 mph 1016.3mb 49f 55f
12:00am  -  2 mph 1016.3mb 49f 56f
Mon 07/24 11:54pm  -  3 mph 1016.3mb 49f 56f
11:48pm 1 2 mph 1016.2mb 50f 56f
11:36pm 1 6 mph 1016.2mb 50f 55f
11:30pm 5 7 mph 1016.2mb 49f 56f
11:24pm 6 9 mph 1016.2mb 49f 56f
11:18pm 6 7 mph 1016.1mb 49f 55f
11:12pm 6 7 mph 1016.1mb 49f 56f
11:06pm 6 8 mph 1016.1mb 49f 56f
11:00pm 7 9 mph 1016.1mb 49f 56f
10:54pm 7 9 mph 1016.1mb 49f 56f
10:48pm 8 10 mph 1016.2mb 49f 56f
10:36pm 8 10 mph 1016.2mb 49f 56f
10:30pm 9 13 mph 1016.2mb 49f 56f
10:24pm 9 11 mph 1016.2mb 49f 56f
10:18pm 9 11 mph 1016.2mb 50f 56f
10:12pm 9 11 mph 1016.1mb 50f 56f
10:06pm 9 11 mph 1016.1mb 50f 56f
10:00pm 9 13 mph 1016.1mb 50f 56f
9:54pm 9 11 mph 1016.1mb 50f 56f
9:48pm 9 13 mph 1016.1mb 50f 56f
9:36pm 10 13 mph 1016mb 51f 56f
9:30pm 10 13 mph 1016mb 51f 56f
9:24pm 10 14 mph 1015.9mb 51f 56f
9:18pm 9 14 mph 1015.9mb 52f 56f
9:12pm 11 14 mph 1015.9mb 52f 57f
9:06pm 11 14 mph 1015.9mb 53f 56f
9:00pm 13 15 mph 1015.9mb 53f 57f
8:54pm 13 15 mph 1015.9mb 53f 56f
8:48pm 11 14 mph 1015.9mb 53f 57f
8:36pm 14 18 mph 1015.9mb 55f 57f
8:30pm 14 17 mph 1015.9mb 55f 57f
8:24pm 13 16 mph 1015.9mb 56f 57f
8:18pm 14 17 mph 1015.9mb 56f 57f
8:12pm 14 20 mph 1015.8mb 57f 57f
8:06pm 15 18 mph 1015.8mb 57f 57f
8:00pm 15 18 mph 1015.8mb 58f 57f
7:54pm 15 20 mph 1015.8mb 58f 57f
7:48pm 15 20 mph 1015.8mb 58f 57f
7:36pm 15 20 mph 1015.6mb 58f 57f
7:30pm 16 18 mph 1015.7mb 58f 57f
7:24pm 16 20 mph 1015.7mb 57f 57f
7:18pm 16 20 mph 1015.7mb 57f 57f
7:12pm 16 20 mph 1015.7mb 56f 57f
7:06pm 16 20 mph 1015.7mb 53f 57f
7:00pm 16 21 mph 1015.7mb 52f 57f
6:54pm 16 22 mph 1015.7mb 52f 57f
6:48pm 17 21 mph 1015.8mb 52f 57f
6:36pm 17 21 mph 1015.8mb 51f 57f
6:30pm 17 22 mph 1015.9mb 51f 57f
6:24pm 18 22 mph 1015.9mb 50f 57f
6:18pm 18 22 mph 1015.9mb 49f 57f
6:12pm 20 22 mph 1016mb 49f 57f
6:06pm 20 23 mph 1016mb 49f 57f
6:00pm 20 24 mph 1016mb 49f 56f
5:54pm 17 22 mph 1016mb 49f 57f
5:48pm 18 21 mph 1016mb 49f 57f
5:36pm 17 21 mph 1015.9mb 49f 57f
5:30pm 17 21 mph 1016mb 48f 57f
5:24pm 17 20 mph 1016mb 48f 57f
5:18pm 17 20 mph 1016mb 48f 57f
5:12pm 17 21 mph 1016.1mb 48f 57f
5:06pm 17 22 mph 1016.1mb 48f 57f
5:00pm 18 22 mph 1016.2mb 48f 57f
4:54pm 17 21 mph 1016.2mb 48f 56f
4:48pm 16 20 mph 1016.3mb 48f 56f
4:36pm 17 20 mph 1016.4mb 48f 56f
4:30pm 17 21 mph 1016.4mb 48f 56f
4:24pm 18 21 mph 1016.4mb 48f 57f
4:18pm 18 22 mph 1016.5mb 48f 57f
4:12pm 18 22 mph 1016.5mb 48f 57f
4:06pm 18 22 mph 1016.4mb 48f 57f
4:00pm 18 21 mph 1016.5mb 48f 57f
3:54pm 17 22 mph 1016.5mb 48f 57f
3:48pm 17 21 mph 1016.6mb 48f 57f
3:36pm 17 21 mph 1016.5mb 48f 56f
3:30pm 17 20 mph 1016.7mb 48f 56f
3:24pm 17 18 mph 1016.6mb 48f 56f
3:18pm 16 20 mph 1016.6mb 48f 56f
3:12pm 16 20 mph 1016.7mb 48f 56f
3:06pm 15 17 mph 1016.8mb 48f 56f
3:00pm 16 18 mph 1016.8mb 48f 56f
2:54pm 16 18 mph 1016.9mb 47f 56f
2:48pm 16 17 mph 1016.9mb 47f 56f
2:36pm 14 16 mph 1016.8mb 47f 56f
2:30pm 14 15 mph 1016.9mb 47f 56f
2:24pm 14 16 mph 1017mb 47f 56f
2:18pm 13 15 mph 1017mb 47f 56f
2:12pm 13 15 mph 1017.1mb 47f 56f
2:06pm 11 14 mph 1016.9mb 47f 56f
2:00pm 10 13 mph 1016.9mb 47f 56f
1:54pm 10 14 mph 1016.9mb 47f 56f
1:48pm 11 14 mph 1016.9mb 47f 56f
1:36pm 10 14 mph 1017.1mb 47f 56f
1:30pm 11 13 mph 1017.2mb 48f 56f
1:24pm 9 11 mph 1017.2mb 48f 56f
1:18pm 9 11 mph 1017.2mb 48f 56f
1:12pm 9 11 mph 1017.2mb 48f 56f
1:06pm 8 9 mph 1017.2mb 48f 56f
1:00pm 7 9 mph 1017.2mb 48f 56f
12:54pm 7 8 mph 1017.2mb 48f 56f
12:48pm 7 9 mph 1017.3mb 48f 56f
12:36pm 5 6 mph 1017.4mb 47f 56f
12:30pm 3 6 mph 1017.5mb 47f 56f
12:24pm 5 6 mph 1017.5mb 47f 56f
12:18pm 5 6 mph 1017.5mb 47f 55f
12:12pm 3 5 mph 1017.5mb 47f 55f
12:06pm 5 6 mph 1017.5mb 47f 55f
12:00pm 3 5 mph 1017.6mb 47f 55f
11:54am 3 5 mph 1017.6mb 47f 55f
11:48am 3 5 mph 1017.6mb 47f 55f
11:36am 5 7 mph 1017.8mb 48f 54f
11:30am 6 7 mph 1017.9mb 48f 54f
11:24am 6 7 mph 1017.8mb 48f 54f
11:18am 6 7 mph 1017.8mb 48f 55f
11:12am 3 6 mph 1017.7mb 48f 56f
11:06am 5 6 mph 1017.7mb 49f 56f
11:00am 5 6 mph 1017.6mb 49f 55f
10:54am 6 7 mph 1017.6mb 49f 55f
10:48am 6 6 mph 1017.6mb 49f 55f
10:36am 5 7 mph 1017.6mb 50f 55f
10:30am 6 8 mph 1017.6mb 50f 55f
10:24am 7 9 mph 1017.7mb 51f 55f
10:18am 7 9 mph 1017.7mb 52f 55f
10:12am 7 9 mph 1017.7mb 53f 55f
10:06am 5 6 mph 1017.7mb 54f 55f
10:00am 6 8 mph 1017.8mb 55f 55f
9:54am 7 9 mph 1017.8mb 56f 56f
9:48am 6 7 mph 1017.8mb 56f 56f
9:36am 6 7 mph 1017.7mb 56f 57f
9:30am 5 7 mph 1017.7mb 57f 56f
9:24am 6 6 mph 1017.8mb 57f 56f
9:18am 5 5 mph 1017.8mb 57f 56f
9:12am 5 6 mph 1017.8mb 57f 55f
9:06am 6 6 mph 1017.8mb 57f 56f
9:00am 5 6 mph 1017.8mb 57f 57f
8:54am 3 5 mph 1017.8mb 57f 57f
8:48am 3 5 mph 1017.9mb 57f 57f
8:36am 5 7 mph 1017.9mb 57f 55f
8:30am 5 7 mph 1017.8mb 57f 54f
8:24am 7 8 mph 1017.7mb 57f 54f
8:18am 6 8 mph 1017.8mb 57f 53f
8:12am 7 8 mph 1017.9mb 57f 53f
8:06am 7 9 mph 1017.9mb 57f 53f
8:00am 6 7 mph 1017.9mb 57f 52f
7:54am 6 7 mph 1017.8mb 57f 52f
7:48am 6 7 mph 1017.8mb 57f 51f
7:36am 5 7 mph 1017.8mb 58f 51f
7:30am 6 8 mph 1017.8mb 58f 50f
7:24am 6 8 mph 1017.8mb 58f 50f
7:18am 7 8 mph 1017.8mb 58f 50f
7:12am 6 8 mph 1017.8mb 58f 49f
7:06am 6 8 mph 1017.9mb 58f 49f
7:00am 7 9 mph 1017.9mb 58f 49f
6:54am 7 8 mph 1017.8mb 58f 49f
6:48am 6 8 mph 1017.8mb 58f 49f
6:36am 7 9 mph 1017.7mb 58f 49f
6:30am 7 9 mph 1017.7mb 58f 49f
6:24am 7 9 mph 1017.7mb 57f 49f
6:18am 7 8 mph 1017.6mb 57f 48f
6:12am 5 6 mph 1017.6mb 57f 48f
6:06am 2 5 mph 1017.6mb 57f 48f
6:00am 5 6 mph 1017.5mb 56f 48f
5:54am 3 6 mph 1017.5mb 56f 48f
5:48am 3 5 mph 1017.5mb 55f 49f
5:36am 3 5 mph 1017.5mb 53f 49f
5:30am 5 7 mph 1017.5mb 52f 49f
5:24am 6 7 mph 1017.5mb 52f 49f
5:18am 7 8 mph 1017.5mb 51f 49f
5:12am 6 8 mph 1017.4mb 51f 49f
5:06am 6 7 mph 1017.3mb 51f 49f
5:00am 6 7 mph 1017.3mb 51f 50f
4:54am 7 8 mph 1017.4mb 51f 50f
4:48am 6 7 mph 1017.4mb 50f 50f
4:36am 5 6 mph 1017.4mb 50f 50f
4:30am 5 6 mph 1017.4mb 50f 50f
4:24am 5 6 mph 1017.3mb 50f 50f
4:18am 5 6 mph 1017.3mb 50f 49f
4:12am 5 6 mph 1017.3mb 49f 51f
4:06am 5 6 mph 1017.3mb 49f 49f
4:00am 3 3 mph 1017.5mb 49f 49f
3:54am  -  2 mph 1017.5mb 49f 50f
3:48am 2 5 mph 1017.6mb 49f 50f
3:36am 3 5 mph 1017.4mb 49f 50f
3:30am 3 6 mph 1017.4mb 49f 51f
3:24am 5 6 mph 1017.4mb 49f 50f
3:18am 5 6 mph 1017.5mb 49f 50f
3:12am 3 5 mph 1017.6mb 49f 50f
3:06am 3 3 mph 1017.6mb 49f 50f